{"data":{"norad_id":45986,"intl_designator":"2020-053B","name":"EXPRESS 80","alt_names":[],"object_type":"PAYLOAD","status":"ACTIVE","operator":null,"country":"CIS","launch_date":"2020-07-30","launch_site_code":"TYMSC","launch_vehicle":null,"mission":null,"orbit_class":"UNKNOWN","rcs_meters":null,"size_class":null,"mass_kg":null,"dimensions":null,"purposes":["comms"],"wikipedia_slug":null,"has_3d_model":false,"image_url":null,"decayed_at":null,"tle_current":{"epoch":"2026-05-24T02:33:07.783776Z","epoch_age_seconds":145542,"freshness":"FRESH","line1":"1 45986U 20053B   26144.10634009 -.00000142  00000+0  00000+0 0  9998","line2":"2 45986   0.0176 272.8284 0001439 267.9875 179.1790  1.00274585 21393","mean_motion":1.00274585,"eccentricity":0.0001439,"inclination_deg":0.0176,"raan_deg":272.8284,"arg_perigee_deg":267.9875,"mean_anomaly_deg":179.179,"bstar":0,"rev_number":2139,"period_min":1436.0568034263,"perigee_km":35779.742645834,"apogee_km":35791.877429792,"semimajor_km":42163.947037813,"source":"CELESTRAK","updated_at":"2026-05-25T13:38:14.095458Z"}}}